| time (UTC) | temp F | wind direction | speed knots | gust knots | rain 1hr in | rain 24hr in | rain mn in | humidity % | barometer mb |
| 20260510064053 | 51 | 8 | 6.1 | 12.2 | 0.00 | 0.00 | 0.00 | 87 | 1015.7 |
| 20260510063056 | 51 | 7 | 5.2 | 9.6 | 0.00 | 0.00 | 0.00 | 88 | 1015.8 |
| 20260510062056 | 50 | 8 | 6.1 | 11.3 | 0.00 | 0.00 | 0.00 | 88 | 1015.8 |
| 20260510061056 | 50 | 18 | 5.2 | 11.3 | 0.00 | 0.00 | 0.00 | 88 | 1015.8 |
| 20260510060056 | 50 | 19 | 4.3 | 8.7 | 0.00 | 0.00 | 0.00 | 87 | 1015.8 |
| 20260510055054 | 50 | 14 | 5.2 | 10.4 | 0.00 | 0.00 | 0.00 | 88 | 1015.7 |
| 20260510054055 | 50 | 9 | 5.2 | 9.6 | 0.00 | 0.00 | 0.00 | 88 | 1015.7 |
| 20260510053057 | 49 | 13 | 5.2 | 8.7 | 0.00 | 0.00 | 0.00 | 89 | 1015.7 |
| 20260510052052 | 49 | 20 | 5.2 | 9.6 | 0.00 | 0.00 | 0.00 | 88 | 1015.8 |
| 20260510050052 | 49 | 351 | 4.3 | 7.8 | 0.00 | 0.00 | 0.00 | 89 | 1015.8 |
| 20260510045057 | 48 | 7 | 4.3 | 7.8 | 0.00 | 0.00 | 0.00 | 90 | 1015.9 |
| 20260510043053 | 48 | 11 | 3.5 | 5.2 | 0.00 | 0.00 | 0.00 | 89 | 1015.8 |
| 20260510042054 | 48 | 14 | 3.5 | 7.8 | 0.00 | 0.00 | 0.00 | 89 | 1015.8 |
| 20260510041054 | 48 | 7 | 5.2 | 8.7 | 0.00 | 0.00 | 0.00 | 89 | 1015.8 |
| 20260510040056 | 48 | 8 | 6.1 | 10.4 | 0.00 | 0.00 | 0.00 | 89 | 1015.8 |
| 20260510035056 | 48 | 5 | 4.3 | 7.8 | 0.00 | 0.00 | 0.00 | 89 | 1015.7 |
| 20260510034055 | 48 | 3 | 4.3 | 7.0 | 0.00 | 0.00 | 0.00 | 89 | 1015.7 |
| 20260510033056 | 48 | 5 | 3.5 | 6.1 | 0.00 | 0.00 | 0.00 | 88 | 1015.7 |
| 20260510032055 | 48 | 3 | 2.6 | 5.2 | 0.00 | 0.00 | 0.00 | 88 | 1015.8 |
| 20260510031055 | 48 | 355 | 2.6 | 4.3 | 0.00 | 0.00 | 0.00 | 88 | 1016.0 |
| 20260510030053 | 48 | 12 | 2.6 | 6.1 | 0.00 | 0.00 | 0.00 | 87 | 1016.2 |
| 20260510025052 | 48 | 9 | 3.5 | 7.0 | 0.00 | 0.00 | 0.00 | 87 | 1016.1 |
| 20260510023055 | 49 | 359 | 3.5 | 6.1 | 0.00 | 0.00 | 0.00 | 86 | 1016.1 |
| 20260510021055 | 49 | 357 | 3.5 | 6.1 | 0.00 | 0.00 | 0.00 | 86 | 1016.1 |
| 20260510020054 | 49 | 355 | 2.6 | 5.2 | 0.00 | 0.00 | 0.00 | 86 | 1016.1 |
| 20260510015053 | 49 | 356 | 2.6 | 5.2 | 0.00 | 0.00 | 0.00 | 85 | 1016.1 |
| 20260510014054 | 49 | 358 | 2.6 | 4.3 | 0.00 | 0.00 | 0.00 | 84 | 1016.2 |
| 20260510013056 | 50 | 358 | 2.6 | 5.2 | 0.00 | 0.00 | 0.00 | 83 | 1016.3 |
| 20260510012053 | 50 | 6 | 3.5 | 5.2 | 0.00 | 0.00 | 0.00 | 83 | 1016.5 |
| 20260510011052 | 50 | 2 | 2.6 | 5.2 | 0.00 | 0.00 | 0.00 | 82 | 1016.5 |
| 20260510010055 | 50 | 2 | 3.5 | 6.1 | 0.00 | 0.00 | 0.00 | 82 | 1016.5 |
| 20260510005053 | 51 | 6 | 4.3 | 6.1 | 0.00 | 0.00 | 0.00 | 81 | 1016.6 |
| 20260510004055 | 51 | 7 | 3.5 | 6.1 | 0.00 | 0.00 | 0.00 | 81 | 1016.8 |
| 20260510003056 | 51 | 8 | 4.3 | 6.1 | 0.00 | 0.00 | 0.00 | 81 | 1016.8 |
| 20260510002056 | 51 | 12 | 3.5 | 5.2 | 0.00 | 0.00 | 0.00 | 80 | 1016.8 |
| 20260510000055 | 52 | 9 | 4.3 | 7.0 | 0.00 | 0.00 | 0.00 | 79 | 1016.9 |
| 20260509235108 | 52 | 6 | 4.3 | 7.0 | 0.00 | 0.00 | 0.00 | 79 | 1016.9 |
| 20260509233103 | 52 | 1 | 2.6 | 5.2 | 0.00 | 0.00 | 0.00 | 79 | 1016.9 |
| 20260509232106 | 52 | 6 | 3.5 | 5.2 | 0.00 | 0.00 | 0.00 | 78 | 1017.0 |
| 20260509231101 | 53 | 6 | 3.5 | 5.2 | 0.00 | 0.00 | 0.00 | 77 | 1017.1 |
| 20260509230105 | 53 | 1 | 2.6 | 4.3 | 0.00 | 0.00 | 0.00 | 76 | 1017.1 |
| 20260509225107 | 53 | 5 | 3.5 | 6.1 | 0.00 | 0.00 | 0.00 | 76 | 1017.1 |
| 20260509224105 | 53 | 11 | 3.5 | 5.2 | 0.00 | 0.00 | 0.00 | 75 | 1017.1 |
| 20260509223101 | 54 | 17 | 3.5 | 5.2 | 0.00 | 0.00 | 0.00 | 74 | 1017.1 |
| 20260509222105 | 54 | 20 | 4.3 | 8.7 | 0.00 | 0.00 | 0.00 | 72 | 1017.1 |
| 20260509221105 | 54 | 23 | 3.5 | 5.2 | 0.00 | 0.00 | 0.00 | 72 | 1017.1 |
| 20260509220104 | 55 | 21 | 3.5 | 4.3 | 0.00 | 0.00 | 0.00 | 71 | 1017.1 |
| 20260509215113 | 55 | 22 | 3.5 | 5.2 | 0.00 | 0.00 | 0.00 | 71 | 1017.1 |
| 20260509214110 | 55 | 11 | 3.5 | 6.1 | 0.00 | 0.00 | 0.00 | 71 | 1017.1 |
| 20260509213110 | 55 | 5 | 3.5 | 7.0 | 0.00 | 0.00 | 0.00 | 72 | 1017.1 |
| 20260509210106 | 57 | 20 | 3.5 | 6.1 | 0.00 | 0.00 | 0.00 | 68 | 1017.1 |
| 20260509205111 | 57 | 24 | 3.5 | 7.0 | 0.00 | 0.00 | 0.00 | 68 | 1017.0 |
| 20260509204110 | 57 | 14 | 3.5 | 5.2 | 0.00 | 0.00 | 0.00 | 67 | 1017.0 |
| 20260509203111 | 57 | 20 | 3.5 | 6.1 | 0.00 | 0.00 | 0.00 | 68 | 1017.0 |
| 20260509200111 | 58 | 16 | 2.6 | 4.3 | 0.00 | 0.00 | 0.00 | 68 | 1016.9 |
| 20260509195113 | 58 | 19 | 2.6 | 5.2 | 0.00 | 0.00 | 0.00 | 67 | 1016.8 |
| 20260509194107 | 58 | 21 | 3.5 | 5.2 | 0.00 | 0.00 | 0.00 | 66 | 1016.9 |
| 20260509193108 | 59 | 21 | 3.5 | 6.1 | 0.00 | 0.00 | 0.00 | 66 | 1016.8 |
| 20260509192109 | 59 | 20 | 3.5 | 6.1 | 0.00 | 0.00 | 0.00 | 65 | 1016.8 |
| 20260509191107 | 60 | 15 | 3.5 | 7.0 | 0.00 | 0.00 | 0.00 | 63 | 1016.7 |
| 20260509190110 | 60 | 15 | 3.5 | 6.1 | 0.00 | 0.00 | 0.00 | 61 | 1016.5 |
| 20260509184108 | 62 | 11 | 4.3 | 7.8 | 0.00 | 0.00 | 0.00 | 58 | 1016.4 |
| 20260509183110 | 62 | 9 | 5.2 | 8.7 | 0.00 | 0.00 | 0.00 | 58 | 1016.4 |
| 20260509182106 | 63 | 5 | 4.3 | 9.6 | 0.00 | 0.00 | 0.00 | 57 | 1016.3 |
| 20260509181104 | 64 | 8 | 4.3 | 7.0 | 0.00 | 0.00 | 0.00 | 56 | 1016.3 |
| 20260509180105 | 65 | 11 | 3.5 | 6.1 | 0.00 | 0.00 | 0.00 | 55 | 1016.2 |
| 20260509175102 | 65 | 5 | 4.3 | 7.8 | 0.00 | 0.00 | 0.00 | 54 | 1016.3 |
| 20260509174107 | 66 | 12 | 3.5 | 6.1 | 0.00 | 0.00 | 0.00 | 53 | 1016.3 |
| 20260509173103 | 67 | 33 | 5.2 | 9.6 | 0.00 | 0.00 | 0.00 | 50 | 1016.2 |
| 20260509171103 | 68 | 17 | 4.3 | 8.7 | 0.00 | 0.00 | 0.00 | 50 | 1016.0 |
| 20260509170104 | 68 | 12 | 5.2 | 8.7 | 0.00 | 0.00 | 0.00 | 49 | 1016.0 |
| 20260509164103 | 68 | 22 | 6.1 | 9.6 | 0.00 | 0.00 | 0.00 | 50 | 1016.1 |
| 20260509163104 | 68 | 6 | 5.2 | 9.6 | 0.00 | 0.00 | 0.00 | 49 | 1016.0 |
| 20260509162103 | 68 | 18 | 4.3 | 7.8 | 0.00 | 0.00 | 0.00 | 50 | 1016.0 |
| 20260509161103 | 69 | 36 | 4.3 | 7.8 | 0.00 | 0.00 | 0.00 | 51 | 1016.0 |
| 20260509160058 | 69 | 32 | 4.3 | 10.4 | 0.00 | 0.00 | 0.00 | 49 | 1016.0 |
| 20260509155100 | 69 | 16 | 4.3 | 11.3 | 0.00 | 0.00 | 0.00 | 48 | 1016.1 |
| 20260509154100 | 69 | 40 | 4.3 | 9.6 | 0.00 | 0.00 | 0.00 | 49 | 1016.1 |
| 20260509153101 | 70 | 32 | 4.3 | 10.4 | 0.00 | 0.00 | 0.00 | 50 | 1016.1 |
| 20260509151059 | 70 | 10 | 4.3 | 8.7 | 0.00 | 0.00 | 0.00 | 50 | 1016.3 |
| 20260509145058 | 70 | 26 | 5.2 | 10.4 | 0.00 | 0.00 | 0.00 | 51 | 1016.4 |
| 20260509143058 | 70 | 11 | 6.1 | 10.4 | 0.00 | 0.00 | 0.00 | 53 | 1016.6 |
| 20260509142056 | 69 | 24 | 4.3 | 9.6 | 0.00 | 0.00 | 0.00 | 51 | 1016.7 |
| 20260509141058 | 70 | 4 | 5.2 | 10.4 | 0.00 | 0.00 | 0.00 | 51 | 1016.7 |
| 20260509135056 | 69 | 29 | 4.3 | 9.6 | 0.00 | 0.00 | 0.00 | 51 | 1016.8 |
| 20260509134057 | 70 | 24 | 5.2 | 10.4 | 0.00 | 0.00 | 0.00 | 53 | 1017.0 |
| 20260509133059 | 70 | 20 | 6.1 | 11.3 | 0.00 | 0.00 | 0.00 | 52 | 1017.0 |
| 20260509131058 | 70 | 29 | 6.1 | 13.0 | 0.00 | 0.00 | 0.00 | 54 | 1017.2 |
| 20260509130056 | 70 | 19 | 5.2 | 10.4 | 0.00 | 0.00 | 0.00 | 54 | 1017.2 |
| 20260509125058 | 69 | 31 | 5.2 | 13.0 | 0.00 | 0.00 | 0.00 | 55 | 1017.4 |
| 20260509124056 | 69 | 21 | 4.3 | 9.6 | 0.00 | 0.00 | 0.00 | 53 | 1017.5 |
| 20260509123057 | 69 | 354 | 5.2 | 10.4 | 0.00 | 0.00 | 0.00 | 56 | 1017.5 |
| 20260509122053 | 69 | 31 | 5.2 | 9.6 | 0.00 | 0.00 | 0.00 | 55 | 1017.6 |
| 20260509121057 | 69 | 23 | 5.2 | 10.4 | 0.00 | 0.00 | 0.00 | 56 | 1017.7 |
| 20260509120058 | 69 | 136 | 4.3 | 10.4 | 0.00 | 0.00 | 0.00 | 58 | 1017.9 |
| 20260509114056 | 68 | 25 | 6.1 | 11.3 | 0.00 | 0.00 | 0.00 | 55 | 1018.1 |
| 20260509112054 | 68 | 47 | 5.2 | 10.4 | 0.00 | 0.00 | 0.00 | 56 | 1018.2 |
| 20260509110056 | 68 | 104 | 4.3 | 12.2 | 0.00 | 0.00 | 0.00 | 57 | 1018.4 |
| 20260509105055 | 68 | 135 | 4.3 | 8.7 | 0.00 | 0.00 | 0.00 | 57 | 1018.5 |
| 20260509103056 | 67 | 179 | 3.5 | 9.6 | 0.00 | 0.00 | 0.00 | 56 | 1018.6 |
| 20260509102058 | 67 | 34 | 6.1 | 11.3 | 0.00 | 0.00 | 0.00 | 58 | 1018.7 |
| 20260509100056 | 66 | 39 | 5.2 | 9.6 | 0.00 | 0.00 | 0.00 | 59 | 1018.7 |
| 20260509095058 | 66 | 36 | 5.2 | 11.3 | 0.00 | 0.00 | 0.00 | 58 | 1018.8 |
| 20260509094056 | 66 | 34 | 3.5 | 11.3 | 0.00 | 0.00 | 0.00 | 59 | 1018.8 |
| 20260509092055 | 65 | 26 | 4.3 | 7.8 | 0.00 | 0.00 | 0.00 | 63 | 1018.9 |
| 20260509091058 | 64 | 25 | 4.3 | 6.1 | 0.00 | 0.00 | 0.00 | 65 | 1019.0 |
| 20260509090056 | 64 | 35 | 3.5 | 7.0 | 0.00 | 0.00 | 0.00 | 66 | 1019.0 |
| 20260509085054 | 62 | 32 | 3.5 | 6.1 | 0.00 | 0.00 | 0.00 | 66 | 1019.0 |
| 20260509084056 | 62 | 28 | 3.5 | 7.0 | 0.00 | 0.00 | 0.00 | 68 | 1019.1 |
| 20260509083056 | 62 | 11 | 3.5 | 6.1 | 0.00 | 0.00 | 0.00 | 70 | 1019.2 |
| 20260509082059 | 61 | 23 | 3.5 | 6.1 | 0.00 | 0.00 | 0.00 | 71 | 1019.2 |
| 20260509081059 | 60 | 19 | 3.5 | 6.1 | 0.00 | 0.00 | 0.00 | 70 | 1019.3 |
| 20260509080056 | 59 | 13 | 3.5 | 6.1 | 0.00 | 0.00 | 0.00 | 73 | 1019.4 |
| 20260509075055 | 59 | 29 | 2.6 | 5.2 | 0.00 | 0.00 | 0.00 | 73 | 1019.3 |
| 20260509074057 | 59 | 32 | 1.7 | 4.3 | 0.00 | 0.00 | 0.00 | 74 | 1019.3 |
| 20260509073058 | 58 | 319 | 1.7 | 4.3 | 0.00 | 0.00 | 0.00 | 71 | 1019.5 |
| 20260509072058 | 58 | 261 | 1.7 | 3.5 | 0.00 | 0.00 | 0.00 | 72 | 1019.6 |
| 20260509071055 | 57 | 30 | 2.6 | 4.3 | 0.00 | 0.00 | 0.00 | 72 | 1019.6 |
| 20260509070051 | 56 | 28 | 2.6 | 4.3 | 0.00 | 0.00 | 0.00 | 76 | 1019.6 |
| 20260509065055 | 55 | 55 | 1.7 | 5.2 | 0.00 | 0.00 | 0.00 | 77 | 1019.6 |